Location: Unspecified
(0.0000°N, 0.0000°E)
Time: 16:58:26
(UTC+00:00)

Kosmos-2266 - Visible Passes

Search period start: 15 April 2024 00:00
Search period end: 25 April 2024 00:00
Orbit: 947 x 1016 km, 82.9° (Epoch: 15 April)

Date Brightness Start Highest point End Pass type
(mag) Time Alt. Az. Time Alt. Az. Time Alt. Az.
15 Apr 6.7 19:17:27 10° NNW 19:23:15 43° W 19:29:02 10° SSW visible
16 Apr 8.0 19:46:14 10° NW 19:50:20 18° W 19:54:24 10° SW visible
17 Apr 8.6 05:22:55 10° ESE 05:25:57 14° E 05:29:00 10° ENE visible
17 Apr 5.4 18:26:03 10° N 18:32:15 77° E 18:38:22 10° S visible
18 Apr 6.6 18:53:26 10° NNW 18:59:19 47° W 19:05:09 10° SSW visible
19 Apr 8.0 19:22:03 10° NW 19:26:23 20° W 19:30:42 10° SW visible
20 Apr 8.6 04:59:27 10° ESE 05:02:02 13° E 05:04:36 10° ENE visible
21 Apr 7.7 05:23:38 10° SSE 05:29:06 30° E 05:34:36 10° NNE visible
21 Apr 6.5 18:29:26 10° NNW 18:35:22 51° W 18:41:16 10° SSW visible
22 Apr 8.0 18:57:54 10° NW 19:02:27 22° W 19:06:58 10° SW visible
23 Apr 8.7 04:36:11 10° ESE 04:38:07 11° E 04:40:02 10° ENE visible
24 Apr 7.7 04:59:52 10° SSE 05:05:11 28° E 05:10:32 10° NE visible
